Regional Weather Roundup
Issued by NWS

Home | Current Version | Previous Version | Graphics & Text | Print | Product List | Glossary On
Versions: 1 2 3 4 5 6 7 8 9 10 11 12 13 14 15 16 17 18 19 20 21 22 23 24 25 26 27 28 29 30 31 32 33 34 35 36 37 38 39 40 41 42 43 44 45 46 47 48 49 50
000
ASUS43 KMPX 022210
RWRMN
WEATHER ROUNDUP FOR MINNESOTA
NATIONAL WEATHER SERVICE TWIN CITIES/CHANHASSEN MN
500 PM CDT SUN AUG 02 2015


NOTE: "FAIR" INDICATES FEW OR NO CLOUDS BELOW 12,000 FEET WITH NO
SIGNIFICANT WEATHER AND/OR OBSTRUCTIONS TO VISIBILITY. N/A MEANS
CURRENT SKY AND/OR WEATHER CONDITIONS ARE NOT AVAILABLE.

MNZ060>063-068>070-022300-
   Twin Cities Metro

CITY           SKY/WX    TMP DP  RH WIND       PRES   REMARKS
TWIN CITIES    MOSUNNY   84  60  44 NW16G32   29.71R
ST PAUL        MOSUNNY   83  62  49 NW18G25   29.70R
CRYSTAL        MOSUNNY   83  60  45 NW14      29.70S
LAKEVILLE      MOSUNNY   81  61  50 NW13      29.72R
EDEN PRAIRIE   MOSUNNY   84  61  45 NW15      29.71S
SOUTH ST PAUL  MOSUNNY   83  59  43 NW16G23   29.70R
LAKE ELMO      FAIR      79  63  57 NW12      29.72R
$$
MNZ001>005-007-008-013>017-022>024-027-028-022300-
   Northwest Minnesota

CITY           SKY/WX    TMP DP  RH WIND       PRES   REMARKS
BEMIDJI        MOSUNNY   72  45  36 NW18G29   29.79S
HALLOCK        SUNNY     75  41  29 NW16G24   29.80S
ROSEAU         SUNNY     72  48  43 W17G25    29.77S
WARROAD        MOSUNNY   73  54  49 W17G26    29.76S
THIEF RVR FALL MOSUNNY   73  45  35 NW16G22   29.81F
CROOKSTON      MOSUNNY   73  46  38 NW13G21   29.83S
FOSSTON        SUNNY     75  43  31 NW14G23   29.83R
DETROIT LAKES  SUNNY     73  50  43 N15G24    29.83F
MOORHEAD       SUNNY     75  52  43 NW17      29.84R
PARK RAPIDS    SUNNY     76  48  37 NW18G30   29.80S
MAHNOMEN       FAIR      73  50  44 NW10G22   29.83R
$$
MNZ006-009>011-018-025>026-022300-
   North Central Minnesota

CITY           SKY/WX    TMP DP  RH WIND       PRES   REMARKS
BAUDETTE       SUNNY     71  45  39 NW16G26   29.74S
FLAG ISLAND    MOSUNNY   70  46  43 NW25G33   29.73S
INTL FALLS     MOSUNNY   72  45  37 W16G28    29.71S
WASKISH        PTSUNNY   72  52  49 W17G24    29.75S
BIG FORK       SUNNY     72  45  37 NW5       29.75R
LONGVILLE      SUNNY     73  48  40 NW9G17    29.78S
GRAND RAPIDS   PTSUNNY   72  45  37 NW17G26   29.76R
CRANE LAKE     MOSUNNY   70  43  37 N12G20    29.71S
ORR            MOSUNNY   72  41  33 NW12G18   29.69S
COOK           MOSUNNY   72  45  37 W17       29.72S
WALKER         FAIR      72  47  41 NW13G21   29.78S
$$
MNZ012-019>021-037-022300-
   Northeast Minnesota

CITY           SKY/WX    TMP DP  RH WIND       PRES   REMARKS
DULUTH         MOSUNNY   75  53  46 NW18G26   29.69S
ELY            PTSUNNY   70  46  43 NW14G23   29.68S
HIBBING        MOSUNNY   71  46  40 NW21G29   29.72R
EVELETH        MOSUNNY   72  43  35 NW17G30   29.72R
DULUTH HARBOR  PTSUNNY   73  55  53 NW10      29.67S
TWO HARBORS    MOSUNNY   77  59  53 NW7       29.65S
SILVER BAY     SUNNY     77  48  36 W3        29.63S
GRAND MARAIS     N/A     78  46  32 VRB5      29.59S
G MARAIS ARPRT MOSUNNY   72  43  35 W8G18     29.64F
$$
MNZ029>031-032-039>041-046>048-054>057-064-022300-
   West Central Minnesota

CITY           SKY/WX    TMP DP  RH WIND       PRES   REMARKS
FERGUS FALLS   SUNNY     75  54  46 NW18G24   29.81S
WHEATON        SUNNY     75  55  50 NW15      29.84F
MORRIS         SUNNY     79  57  47 NW16G25   29.82S
ALEXANDRIA     MOSUNNY   77  54  44 NW15G26   29.83S
ELBOW LAKE     FAIR      74  56  53 N16G24    29.83S
WADENA         SUNNY     73  50  43 NW14G28   29.81S
GLENWOOD       SUNNY     75  55  50 NW14      29.82S
APPLETON       MOSUNNY   81  55  41 N15G21    29.82S
BENSON         SUNNY     79  54  41 N14       29.81F
ORTONVILLE     MOSUNNY   79  55  44 N10G16    29.84S
MADISON        SUNNY     79  55  44 N17       29.84S
WILLMAR        FAIR      81  55  41 NW21G26   29.82R
$$
MNZ033>034-036-042>043-049>051-058-059-022300-
   Central Minnesota

CITY           SKY/WX    TMP DP  RH WIND       PRES   REMARKS
ST CLOUD       SUNNY     80  56  43 NW18G30   29.75R
SAUK CENTRE    FAIR      76  54  46 NW23      29.81R
PAYNESVILLE    SUNNY     76  53  44 W16G24    29.79S
AITKIN         MOSUNNY   75  54  46 NW14G22   29.74R
PINE RIVER     SUNNY     75  52  43 NW13G24   29.81R
BRAINERD       MOSUNNY   78  50  37 NW16G25   29.77R
STAPLES        SUNNY     73  46  38 NW21G28   29.80R
LONG PRAIRIE   FAIR      75  55  50 W17G23    29.81S
LITTLE FALLS   SUNNY     77  50  38 NW15G22   29.77S
LITCHFIELD     SUNNY     81  57  44 NW14G23   29.79R
BUFFALO        SUNNY     81  55  39 NW17G24   29.75R
MAPLE LAKE     MOSUNNY   81  61  50 NW13G18   29.76R
$$
MNZ037-044-045-052-053-022300-
   East Central Minnesota

CITY           SKY/WX    TMP DP  RH WIND       PRES   REMARKS
PRINCETON      MOSUNNY   81  61  50 NW14G21   29.73R
MORA           SUNNY     75  54  46 NW18G25   29.74R
CAMBRIDGE      MOSUNNY   82  63  51 W14G20    29.70S
RUSH CITY      MOSUNNY   78  58  49 NW12      29.71S
MOOSE LAKE     SUNNY     77  52  41 NW13G22   29.69S
HINCKLEY       FAIR      77  57  50 NW17G24   29.71R
CLOQUET        MOSUNNY   75  48  38 NW20G26   29.70S
MCGREGOR       MOSUNNY   77  50  38 NW17G23   29.74R
$$
MNZ071>073-080-081-089-090-097-098-022300-
   Southwest Minnesota

CITY           SKY/WX    TMP DP  RH WIND       PRES   REMARKS
MONTEVIDEO     MOSUNNY   82  61  47 N15G22    29.84S
GRANITE FALLS  MOSUNNY   79  58  48 NW16G23   29.84R
CANBY          SUNNY     78  58  49 N14G20    29.86R
MARSHALL       SUNNY     79  57  47 N14G22    29.85S
REDWOOD FALLS  SUNNY     81  58  45 N15G26    29.80R
OLIVIA         SUNNY     77  55  47 NW18G25   29.80S
PIPESTONE      SUNNY     82  55  39 N13       29.86R
WINDOM         SUNNY     81  61  50 NW16      29.82R
WORTHINGTON    SUNNY     82  63  51 N12       29.83S
JACKSON        SUNNY     82  61  47 NW16      29.82S
TRACY          SUNNY     79  63  57 N14G24    29.83S
SLAYTON        SUNNY     81  59  47 N6G18     29.85S
$$
MNZ065>067-074>077-082>085-091>093-022300-
   South Central Minnesota

CITY           SKY/WX    TMP DP  RH WIND       PRES   REMARKS
MANKATO        SUNNY     82  61  47 NW18G28   29.75R
NEW ULM        SUNNY     81  57  44 NW16      29.78R
ST JAMES       SUNNY     82  64  54 NW16G24   29.79R
FAIRMONT       SUNNY     82  61  47 NW17      29.78R
GLENCOE        SUNNY     81  62  51 NW16G24   29.76R
FARIBAULT      SUNNY     81  64  57 NW13G24   29.74R
OWATONNA       SUNNY     81  66  61 NW16      29.74R
WASECA         SUNNY     81  61  50 NW15G22   29.76R
ALBERT LEA     SUNNY     84  61  45 NW8G21    29.75R
$$
MNZ078>079-086>088-094>096-022300-
   Southeast Minnesota

CITY           SKY/WX    TMP DP  RH WIND       PRES   REMARKS
ROCHESTER      MOSUNNY   82  63  52 NW21G28   29.73R
RED WING       SUNNY     84  61  45 N10G17    29.68R
STANTON        MOSUNNY   83  63  50 NW12      29.71R
DODGE CENTER   MOSUNNY   81  63  54 N16       29.73S
WINONA         PTSUNNY   86  68  54 NW17G24   29.67R
AUSTIN         SUNNY     84  64  51 NW18      29.74R
PRESTON        MOSUNNY   83  65  55 NW14      29.73R
$$
ABBREVIATIONS USED IN REMARKS
   TC - TEMPERATURES IN CELSIUS
  WCI - WIND CHILL INDEX
   HX - HEAT INDEX
  VSB - VISIBILITY
$$



USA.gov is the U.S. government's official web portal to all federal, state and local government web resources and services.